Terminal Aerodrome Forecast
Issued by NWS Wilmington, OH

Current Version | Previous Version | Graphics & Text | Print | Product List | Glossary On
Versions: 1 2 3 4 5 6 7 8 9 10 11 12 13 14 15 16 17 18 19 20 21 22 23 24 25 26 27 28 29 30 31 32 33 34 35 36 37 38 39 40 41
694
FTUS41 KILN 240133 AAD
TAFCVG
TAF AMD
KCVG 240133Z 2402/2506 00000KT P6SM SCT007 OVC015
     FM240600 32006KT P6SM SCT015 BKN150
     FM241400 28011KT P6SM FEW035 SCT250
     FM250000 29004KT P6SM SCT250=

USA.gov is the U.S. government's official web portal to all federal, state and local government web resources and services.